FW8731 Weather Reports


Display with metric or nautical units.
time (UTC)temp
F
wind
direction
speed
MPH
gust
MPH
rain 1hr
in
rain 24hr
in
rain mn
in
humidity
%
barometer
mb
20260901063046 67 0 2.0 7.0 0.00 0.00 0.00 45 1011.2
20260901061549 68 19 2.0 7.0 0.00 0.00 0.00 43 1011.2
20260901060052 68 139 1.0 3.0 0.00 0.00 0.00 42 1011.1
20260901054550 68 0 0.0 5.0 0.00 0.00 0.00 42 1011.2
20260901053051 69 56 2.0 5.0 0.00 0.00 0.00 41 1011.2
20260901051559 70 0 1.0 5.0 0.00 0.00 0.00 40 1011.0
20260901050048 71 35 2.0 9.0 0.00 0.00 0.00 39 1010.9
20260901044545 71 194 2.0 6.0 0.00 0.00 0.00 38 1010.9
20260901043046 72 209 2.0 8.0 0.00 0.00 0.00 37 1010.7
20260901041545 72 129 1.0 4.0 0.00 0.00 0.00 36 1010.4
20260901040109 73 157 1.0 4.0 0.00 0.00 0.00 35 1010.1
20260901034548 75 107 1.0 6.0 0.00 0.00 0.00 32 1009.8
20260901033044 76 313 1.0 7.0 0.00 0.00 0.00 30 1009.7
20260901031553 77 306 1.0 11.0 0.00 0.00 0.00 26 1009.2
20260901030051 77 355 3.0 18.0 0.00 0.00 0.00 26 1009.0
20260901024547 78 96 3.0 12.0 0.00 0.00 0.00 23 1008.8
20260901023045 79 261 2.0 12.0 0.00 0.00 0.00 20 1008.3
20260901021556 80 314 1.0 9.0 0.00 0.00 0.00 19 1008.0
20260901020043 81 316 5.0 25.0 0.00 0.00 0.00 17 1007.5
20260901014553 82 115 3.0 19.0 0.00 0.00 0.00 16 1007.3
20260901013105 84 151 5.0 13.0 0.00 0.00 0.00 17 1007.1
20260901011544 85 286 4.0 12.0 0.00 0.00 0.00 18 1007.0
20260901010053 86 311 7.0 17.0 0.00 0.00 0.00 20 1007.1
20260901004555 88 281 1.0 16.0 0.00 0.00 0.00 22 1007.0
20260901003048 88 175 3.0 10.0 0.00 0.00 0.00 23 1006.8
20260901001545 87 272 5.0 18.0 0.00 0.00 0.00 23 1006.8
20260901000053 88 234 6.0 12.0 0.00 0.00 0.00 25 1006.9
20260831234556 90 330 3.0 13.0 0.00 0.00 0.00 25 1007.0
20260831233045 90 281 3.0 10.0 0.00 0.00 0.00 24 1006.9
20260831231559 89 288 5.0 14.0 0.00 0.00 0.00 26 1007.0
20260831230051 91 315 4.0 12.0 0.00 0.00 0.00 25 1006.9
20260831224557 90 198 5.0 15.0 0.00 0.00 0.00 25 1007.2
20260831223056 91 250 4.0 11.0 0.00 0.00 0.00 24 1007.1
20260831221600 91 0 1.0 9.0 0.00 0.00 0.00 24 1007.2
20260831220045 91 331 4.0 9.0 0.00 0.00 0.00 23 1007.3
20260831214545 91 248 2.0 11.0 0.00 0.00 0.00 25 1007.3
20260831213055 90 234 2.0 7.0 0.00 0.00 0.00 26 1007.5
20260831211548 89 213 3.0 9.0 0.00 0.00 0.00 26 1007.7
20260831210048 88 211 3.0 7.0 0.00 0.00 0.00 27 1007.8
20260831204545 87 157 5.0 9.0 0.00 0.00 0.00 27 1008.0
20260831203116 86 147 3.0 10.0 0.00 0.00 0.00 28 1008.1
20260831201600 85 191 2.0 6.0 0.00 0.00 0.00 29 1008.4
20260831200133 84 206 3.0 8.0 0.00 0.00 0.00 30 1008.6
20260831194600 82 192 3.0 8.0 0.00 0.00 0.00 32 1008.8
20260831193046 81 187 2.0 6.0 0.00 0.00 0.00 34 1009.1
20260831191548 80 189 2.0 7.0 0.00 0.00 0.00 34 1009.3
20260831190053 78 0 2.0 6.0 0.00 0.00 0.00 36 1009.7
20260831184548 77 184 2.0 5.0 0.00 0.00 0.00 37 1010.0
20260831183044 75 185 1.0 4.0 0.00 0.00 0.00 38 1010.3
20260831181556 74 0 1.0 4.0 0.00 0.00 0.00 40 1010.4
20260831180058 73 172 1.0 5.0 0.00 0.00 0.00 40 1010.7
20260831174550 72 0 0.0 1.0 0.00 0.00 0.00 42 1010.9
20260831173102 70 0 0.0 1.0 0.00 0.00 0.00 45 1011.1
20260831171554 67 0 0.0 0.0 0.00 0.00 0.00 49 1011.2
20260831170046 65 0 0.0 0.0 0.00 0.00 0.00 53 1011.2
20260831164556 62 0 0.0 0.0 0.00 0.00 0.00 55 1011.5
20260831163051 59 0 0.0 0.0 0.00 0.00 0.00 61 1011.8
20260831161546 55 0 0.0 0.0 0.00 0.00 0.00 67 1012.0
20260831160059 53 0 0.0 0.0 0.00 0.00 0.00 70 1012.1
20260831154615 51 0 0.0 0.0 0.00 0.00 0.00 73 1012.2
20260831153053 50 0 0.0 0.0 0.00 0.00 0.00 76 1012.2
20260831151546 48 0 0.0 0.0 0.00 0.00 0.00 78 1012.3
20260831150055 48 0 0.0 0.0 0.00 0.00 0.00 77 1012.2
20260831144553 47 0 0.0 0.0 0.00 0.00 0.00 79 1012.2
20260831143050 47 0 0.0 0.0 0.00 0.00 0.00 79 1012.2
20260831141551 47 0 0.0 0.0 0.00 0.00 0.00 78 1012.1
20260831140043 47 0 0.0 0.0 0.00 0.00 0.00 78 1012.1
20260831134555 47 0 0.0 0.0 0.00 0.00 0.00 79 1012.0
20260831133051 47 0 0.0 0.0 0.00 0.00 0.00 79 1012.1
20260831131546 47 0 0.0 0.0 0.00 0.00 0.00 78 1012.1
20260831130059 47 0 0.0 0.0 0.00 0.00 0.00 77 1012.0
20260831124550 48 0 0.0 0.0 0.00 0.00 0.00 76 1012.0
20260831123047 48 0 0.0 0.0 0.00 0.00 0.00 76 1011.9
20260831121547 48 0 0.0 0.0 0.00 0.00 0.00 76 1012.0
20260831120111 49 0 0.0 0.0 0.00 0.00 0.00 75 1012.0
20260831114553 50 0 0.0 0.0 0.00 0.00 0.00 75 1012.2
20260831113101 50 0 0.0 0.0 0.00 0.00 0.00 73 1012.3
20260831111557 51 0 0.0 0.0 0.00 0.00 0.00 71 1012.3
20260831110044 51 0 0.0 0.0 0.00 0.00 0.00 71 1012.2
20260831104602 51 0 0.0 0.0 0.00 0.00 0.00 70 1012.1
20260831103048 52 0 0.0 0.0 0.00 0.00 0.00 70 1012.2
20260831101547 52 0 0.0 0.0 0.00 0.00 0.00 69 1012.1
20260831100057 53 0 0.0 0.0 0.00 0.00 0.00 69 1012.2
20260831094548 52 0 0.0 0.0 0.00 0.00 0.00 69 1012.3
20260831093052 53 0 0.0 0.0 0.00 0.00 0.00 70 1012.5
20260831091545 53 0 0.0 0.0 0.00 0.00 0.00 68 1012.6
20260831090059 54 0 0.0 0.0 0.00 0.00 0.00 66 1012.6
20260831084555 54 0 0.0 0.0 0.00 0.00 0.00 66 1012.7
20260831083052 55 0 0.0 0.0 0.00 0.00 0.00 65 1012.7
20260831081547 55 306 0.0 0.0 0.00 0.00 0.00 64 1012.7
20260831080045 56 0 0.0 0.0 0.00 0.00 0.00 64 1012.6
20260831074552 57 0 0.0 1.0 0.00 0.00 0.00 63 1012.7
20260831073047 58 0 0.0 1.0 0.00 0.00 0.00 59 1012.8
20260831071544 58 0 0.0 0.0 0.00 0.00 0.00 60 1012.8
20260831070054 59 306 0.0 0.0 0.00 0.00 0.00 59 1012.8
20260831064554 59 0 0.0 0.0 0.00 0.00 0.00 58 1012.9